AirNav   Pilot Hours Calculator
 
 1211 users online  

AL88 Ban Farm Airport
Lillian, Alabama, USA

GOING TO LILLIAN?


FAA INFORMATION EFFECTIVE 31 DECEMBER 2020

Location

FAA Identifier: AL88
Lat/Long: 30-25-35.7120N 087-28-14.9260W
30-25.595200N 087-28.248767W
30.4265867,-87.4708128
(estimated)
Elevation: 80 ft. / 24 m (estimated)
Variation: 01E (1985)
From city: 3 miles NW of LILLIAN, AL
Time zone: UTC -6 (UTC -5 during Daylight Saving Time)
Zip code: 36530

Airport Operations

Airport use: Private use. Permission required prior to landing
Activation date: 06/1991
Control tower: no
ARTCC: JACKSONVILLE CENTER
FSS: ANNISTON FLIGHT SERVICE STATION
Attendance: CONTINUOUS
Wind indicator: yes
Segmented circle: no

Airport Communications

WX AWOS-3PT at JKA (13 nm SW): 134.525 (251-968-7581)
WX ASOS at PNS (15 nm E): PHONE 850-436-4799

Nearby radio navigation aids

VOR radial/distance  VOR name  Freq  Var
NUNr248/(7.5)SAUFLEY VOR108.8001E
BFMr106/32.2BROOKLEY VORTAC112.8004E

 
NDB name  Hdg/Dist  Freq  Var  ID
PICKENS270/15.132602WPKZ .--. -.- --..

Airport Services

Runway Information

Runway 9/27

Dimensions: 1320 x 95 ft. / 402 x 29 m
Surface: turf
RUNWAY 9  RUNWAY 27
Traffic pattern: rightleft

Airport Ownership and Management from official FAA records

Ownership: Privately-owned
Owner: WILLIAM T. MILES
P.O. BOX 329
LILLIAN, AL 36549
Phone (251) 979-0809
Manager: WILLIAM T. MILES
P.O. BOX 329
LILLIAN, AL 36549
Phone (251) 979-0809

Airport Operational Statistics

Aircraft based on the field: 1
Single engine airplanes: 1
    

Additional Remarks

OWNER DESIRES ARPT NOT BE CHARTED.
DAY VFR ONLY - OWNER ONLY ALLOWED
FOR CD CTC PENSACOLA APCH AT 850-266-6884 OR 850-266-6885.

Instrument Procedures

There are no published instrument procedures at AL88.

Some nearby airports with instrument procedures:

KNPA - Pensacola Naval Air Station/Forrest Sherman Field (9 nm SE)
5R4 - Foley Municipal Airport (12 nm W)
KJKA - Jack Edwards NTL Airport (13 nm SW)
KPNS - Pensacola International Airport (15 nm E)
KCQF - H L Sonny Callahan Airport (21 nm W)
 
Loc | Ops | Rwys | IFR | FBO | Links
Com | Nav | Svcs | Stats | Notes
Area around AL88 (Ban Farm Airport)
 
Road maps at: MapQuest Bing Google
 
Aerial photo
No photo
 
Sectional chart

 
Airport distance calculator
Flying to Ban Farm Airport? Find the distance to fly.

From to AL88

Sunrise and sunset
Times for 16-Jan-2021
 Local
(UTC-6)
 Zulu
(UTC)
Morning civil twilight06:2212:22
Sunrise06:4812:48
Sunset17:1123:11
Evening civil twilight17:3723:37

Current date and time
Zulu (UTC)  16-Jan-2021 15:29:19
Local (UTC-6)  16-Jan-2021 09:29:19
 
METAR
KNPA 
9nm SE 
161456Z 28008KT 10SM CLR 08/M05 A3006 RMK SLP181 T00831050 53025
KJKA 
13nm SW 
161515Z AUTO 29011G15KT 10SM CLR 08/M05 A3008 RMK AO2 T00821046
KPNS 
15nm E 
161453Z 30010G20KT 10SM CLR 08/M05 A3006 RMK AO2 SLP183 T00781050 53029
TAF
KNPA 
9nm SE 
1523/1623 25010G18KT 9999 SKC QNH2979INS FM160300 28011KT 9999 SKC QNH2984INS FM161200 27012KT 9999 FEW250 QNH2995INS FM161500 27012G20KT 9999 FEW250 QNH3000INS LAST NO AMDS AFT 1523 NEXT 1907 AUTOMATED SENSOR METWATCH 1603 TIL 1615 T04/1612Z T12/1618Z FN20034
KPNS 
15nm E 
161120Z 1612/1712 28005KT P6SM SKC FM161500 30010G18KT P6SM SKC FM162300 VRB03KT P6SM SKC
NOTAMs
Click for the latest NOTAMs
NOTAMs are issued by the DoD/FAA and will open in a separate window not controlled by AirNav.

 

 
 

Would you like to see your business listed on this page?

 If your business provides an interesting product or service to pilots, flight crews, aircraft, or users of the Ban Farm Airport, you should consider listing it here.  To start the listing process, click on the button below
 
Add a business
 

Other Pages about Ban Farm Airport

Update a link
 
Copyright © AirNav, LLC. All rights reserved. Privacy Policy  Contact